Starlink 31524

operational
NORAD ID: 59506 Int'l Des: 2024-071 Owner: SPXS Country: US Constellation: starlink
LEOCIRCULAR

Über Starlink 31524

Beschreibung wird geladen...

Live-Position

3D-Globus wird geladen...

Nächste Überflüge

Höhenverlauf

Altitude vs Time

uPlot chart will show altitude changes over time

Zweizeiliger Elementsatz

1 59506U 24071Y 26073.65936479 .00012225 00000-0 45372-3 0 9992
2 59506 43.0028 304.7370 0000880 251.6301 108.4455 15.27528867109044
Epoch: 14. März 2026 • Age: 6 hours

Aktueller Status

Höhe 484.2 km
Geschwindigkeit 7.62 km/s
Subsatellitenpunkt -7.26°S, 152.1°E
Startdatum 13. Apr. 2024
Alter 1.9 years
Typ internet

Technische Details

Klassifizierung Payload
Masse 730.00 kg
Trockenmasse 700.00 kg
Gesamtmasse 730.00 kg
Länge 0.30 m
Durchmesser 4.10 m
Spannweite 29.00 m
Form Box + pan
Hersteller SPXS
Bus-Typ Starlink V2M
Phasenstatus In Orbit
Besitzer/Staat SPXS/US

Große Konstellationen

Loading constellations...